Location: ???????
(55.7027°N, 37.3832°E)
Time: 07:23:52
(UTC+00:00)

Cosmos 332 Rocket - Pass Details

Date: 14 April 2026
Orbit: 672 x 692 km, 74.0° (Epoch: 12 May)

Event Time Altitude Azimuth Distance (km) Brightness Sun altitude
Rises 21:04:23 0° 332° (NNW) 3,077 8.3 -24.4°
Reaches altitude 10° 21:06:47 10° 338° (NNW) 2,154 7.3 -24.5°
Maximum altitude 21:11:31 53° 55° (NE) 852 4.3 -24.5°
Enters shadow 21:12:27 45° 93° (E) 932 4.3 -24.5°
